When you browse on this site, cookies collect data to enhance your experience and personalize the content and advertising you see.
Visit our Privacy Policy to learn more. By continuing to use the site, you agree to this use of cookies and data.
  • In Hungary
  • List of Countries
  • For 7 days
  • Water Temperature
  • Satellite Maps
  • Weather Map
  • News
  • Weather Widgets
  • user-avatar
    Login

    Hourly Weather Skalite

    Today, 16 June, Sunday

    Time Temperature Precipitation Wind Pressure Humidity
    00:00 +20°C° 0.1 mm 1 mps 702 mmHg 92%
    01:00 +19°C° 0 mm 1 mps 702 mmHg 93%
    02:00 +17°C° 0.6 mm 0 mps 702 mmHg 94%
    03:00 +16°C° 0.6 mm 0 mps 702 mmHg 94%
    04:00 +16°C° 0.6 mm 0 mps 702 mmHg 95%
    05:00 +19°C° 0.2 mm 1 mps 702 mmHg 92%
    06:00 +21°C° 0.2 mm 1 mps 703 mmHg 89%
    07:00 +22°C° 0 mm 1 mps 704 mmHg 87%
    08:00 +23°C° 0.6 mm 1 mps 704 mmHg 82%
    09:00 +25°C° 0.6 mm 1 mps 704 mmHg 78%
    10:00 +26°C° 0.6 mm 1 mps 704 mmHg 74%
    11:00 +26°C° 1.2 mm 1 mps 704 mmHg 72%
    12:00 +25°C° 1.2 mm 2 mps 704 mmHg 70%
    13:00 +25°C° 1.2 mm 2 mps 704 mmHg 68%
    14:00 +24°C° 1.2 mm 2 mps 704 mmHg 72%
    15:00 +23°C° 1.2 mm 2 mps 704 mmHg 76%
    16:00 +21°C° 1.2 mm 2 mps 704 mmHg 80%
    17:00 +20°C° 0.7 mm 2 mps 704 mmHg 85%
    18:00 +19°C° 0.7 mm 2 mps 705 mmHg 89%
    19:00 +18°C° 0.7 mm 2 mps 705 mmHg 94%
    20:00 +18°C° 0.4 mm 2 mps 705 mmHg 95%
    21:00 +18°C° 0.4 mm 2 mps 705 mmHg 96%
    22:00 +17°C° 0.4 mm 2 mps 705 mmHg 98%
    23:00 +17°C° 0.1 mm 2 mps 705 mmHg 97%

    Tomorrow, 17 June, Monday

    Time Temperature Precipitation Wind Pressure Humidity
    00:00 +17°C° 0.1 mm 2 mps 706 mmHg 97%
    01:00 +16°C° 0.1 mm 2 mps 706 mmHg 96%
    02:00 +16°C° 0 mm 2 mps 706 mmHg 96%
    03:00 +16°C° 0 mm 2 mps 706 mmHg 96%
    04:00 +15°C° 0 mm 2 mps 705 mmHg 96%
    05:00 +16°C° 0 mm 2 mps 706 mmHg 92%
    06:00 +16°C° 0 mm 3 mps 706 mmHg 88%
    07:00 +17°C° 0 mm 3 mps 707 mmHg 83%
    08:00 +18°C° 0 mm 3 mps 707 mmHg 73%
    09:00 +19°C° 0 mm 4 mps 707 mmHg 62%
    10:00 +21°C° 0 mm 4 mps 707 mmHg 51%
    11:00 +21°C° 0 mm 4 mps 707 mmHg 49%
    12:00 +22°C° 0 mm 4 mps 707 mmHg 48%
    13:00 +22°C° 0 mm 4 mps 707 mmHg 46%
    14:00 +22°C° 0 mm 4 mps 707 mmHg 50%
    15:00 +21°C° 0 mm 3 mps 707 mmHg 54%
    16:00 +20°C° 0 mm 3 mps 706 mmHg 59%
    17:00 +20°C° 0 mm 3 mps 706 mmHg 65%
    18:00 +19°C° 0 mm 2 mps 706 mmHg 71%
    19:00 +18°C° 0 mm 2 mps 706 mmHg 77%
    20:00 +17°C° 0 mm 2 mps 706 mmHg 80%
    21:00 +16°C° 0 mm 2 mps 705 mmHg 82%
    22:00 +15°C° 0 mm 1 mps 705 mmHg 84%
    23:00 +15°C° 0 mm 1 mps 705 mmHg 84%

    Day after tomorrow, 18 June, Tuesday

    Time Temperature Precipitation Wind Pressure Humidity
    00:00 +15°C° 0 mm 1 mps 705 mmHg 84%
    01:00 +15°C° 0 mm 1 mps 705 mmHg 85%
    02:00 +14°C° 0 mm 1 mps 705 mmHg 87%
    03:00 +14°C° 0 mm 1 mps 705 mmHg 90%
    04:00 +13°C° 0 mm 1 mps 704 mmHg 92%
    05:00 +15°C° 0 mm 1 mps 705 mmHg 87%
    06:00 +16°C° 0 mm 1 mps 705 mmHg 81%
    07:00 +19°C° 0 mm 1 mps 706 mmHg 76%
    08:00 +20°C° 0 mm 1 mps 706 mmHg 75%
    09:00 +19°C° 0 mm 2 mps 706 mmHg 73%
    10:00 +20°C° 0 mm 2 mps 706 mmHg 72%
    11:00 +22°C° 0.1 mm 1 mps 706 mmHg 69%
    12:00 +24°C° 0.1 mm 1 mps 705 mmHg 66%
    13:00 +25°C° 0.1 mm 1 mps 705 mmHg 63%
    14:00 +24°C° 1.1 mm 1 mps 705 mmHg 70%
    15:00 +23°C° 1.1 mm 2 mps 704 mmHg 78%
    16:00 +21°C° 1.1 mm 2 mps 704 mmHg 85%
    17:00 +21°C° 0.5 mm 1 mps 704 mmHg 87%
    18:00 +21°C° 0.5 mm 1 mps 703 mmHg 90%
    19:00 +20°C° 0.5 mm 1 mps 703 mmHg 92%
    20:00 +19°C° 0.1 mm 1 mps 703 mmHg 93%
    21:00 +18°C° 0.1 mm 1 mps 703 mmHg 94%
    22:00 +16°C° 0.1 mm 1 mps 703 mmHg 95%
    23:00 +16°C° 0 mm 1 mps 702 mmHg 95%

    19 June, Wednesday

    Time Temperature Precipitation Wind Pressure Humidity
    00:00 +16°C° 0 mm 1 mps 702 mmHg 95%
    01:00 +16°C° 0 mm 1 mps 702 mmHg 94%
    02:00 +15°C° 0 mm 1 mps 702 mmHg 94%
    03:00 +15°C° 0 mm 1 mps 702 mmHg 94%
    04:00 +15°C° 0 mm 1 mps 701 mmHg 94%
    05:00 +18°C° 0 mm 1 mps 702 mmHg 91%
    06:00 +19°C° 0 mm 1 mps 702 mmHg 88%
    07:00 +21°C° 0 mm 1 mps 702 mmHg 84%
    08:00 +23°C° 0 mm 1 mps 703 mmHg 75%
    09:00 +24°C° 0 mm 1 mps 703 mmHg 65%
    10:00 +26°C° 0 mm 2 mps 703 mmHg 56%
    11:00 +25°C° 0.2 mm 2 mps 703 mmHg 60%
    12:00 +25°C° 0.2 mm 2 mps 702 mmHg 64%
    13:00 +24°C° 0.2 mm 2 mps 702 mmHg 68%
    14:00 +24°C° 0.1 mm 2 mps 702 mmHg 68%
    15:00 +24°C° 0.1 mm 2 mps 701 mmHg 68%
    16:00 +23°C° 0.1 mm 1 mps 701 mmHg 68%
    17:00 +22°C° 0.1 mm 1 mps 701 mmHg 74%
    18:00 +21°C° 0.1 mm 1 mps 701 mmHg 80%
    19:00 +20°C° 0.1 mm 1 mps 700 mmHg 86%
    20:00 +20°C° 0 mm 1 mps 701 mmHg 87%
    21:00 +19°C° 0 mm 1 mps 701 mmHg 88%
    22:00 +18°C° 0 mm 1 mps 701 mmHg 89%
    23:00 +16°C° 0 mm 1 mps 700 mmHg 89%

    20 June, Thursday

    Time Temperature Precipitation Wind Pressure Humidity
    00:00 +16°C° 0 mm 1 mps 700 mmHg 90%
    01:00 +16°C° 0 mm 1 mps 700 mmHg 90%
    02:00 +16°C° 0 mm 1 mps 700 mmHg 90%
    03:00 +16°C° 0 mm 1 mps 700 mmHg 90%
    04:00 +16°C° 0 mm 1 mps 700 mmHg 91%
    05:00 +18°C° 0 mm 1 mps 700 mmHg 87%
    06:00 +19°C° 0 mm 1 mps 701 mmHg 84%
    07:00 +21°C° 0 mm 1 mps 701 mmHg 81%
    08:00 +22°C° 0 mm 1 mps 701 mmHg 75%
    09:00 +23°C° 0 mm 1 mps 702 mmHg 69%
    10:00 +25°C° 0 mm 1 mps 702 mmHg 63%
    11:00 +25°C° 0.3 mm 1 mps 702 mmHg 61%
    12:00 +26°C° 0.3 mm 1 mps 702 mmHg 59%
    13:00 +26°C° 0.3 mm 1 mps 702 mmHg 57%
    14:00 +26°C° 0.1 mm 1 mps 702 mmHg 59%
    15:00 +25°C° 0.1 mm 1 mps 701 mmHg 62%
    16:00 +24°C° 0.1 mm 1 mps 701 mmHg 64%
    17:00 +23°C° 0 mm 1 mps 701 mmHg 69%
    18:00 +22°C° 0 mm 1 mps 701 mmHg 75%
    19:00 +21°C° 0 mm 1 mps 700 mmHg 80%
    20:00 +20°C° 0 mm 1 mps 700 mmHg 82%
    21:00 +19°C° 0 mm 1 mps 700 mmHg 83%
    22:00 +18°C° 0 mm 1 mps 700 mmHg 85%
    23:00 +16°C° 0 mm 1 mps 700 mmHg 85%

    21 June, Friday

    Time Temperature Precipitation Wind Pressure Humidity
    00:00 +16°C° 0 mm 1 mps 700 mmHg 86%
    01:00 +16°C° 0 mm 1 mps 700 mmHg 86%
    02:00 +16°C° 0.1 mm 1 mps 700 mmHg 86%
    03:00 +16°C° 0.1 mm 1 mps 700 mmHg 87%
    04:00 +16°C° 0.1 mm 1 mps 700 mmHg 88%
    05:00 +18°C° 0.1 mm 1 mps 700 mmHg 85%
    06:00 +20°C° 0.1 mm 1 mps 701 mmHg 82%
    07:00 +21°C° 0.1 mm 1 mps 701 mmHg 79%
    08:00 +22°C° 0.8 mm 1 mps 702 mmHg 78%
    09:00 +23°C° 0.8 mm 1 mps 702 mmHg 77%
    10:00 +24°C° 0.8 mm 1 mps 702 mmHg 76%
    11:00 +24°C° 1.3 mm 1 mps 702 mmHg 77%
    12:00 +24°C° 1.3 mm 1 mps 702 mmHg 77%
    13:00 +24°C° 1.3 mm 2 mps 702 mmHg 78%
    14:00 +24°C° 1.3 mm 1 mps 702 mmHg 78%
    15:00 +24°C° 1.3 mm 1 mps 702 mmHg 78%
    16:00 +22°C° 1.3 mm 0 mps 702 mmHg 78%
    17:00 +21°C° 1.4 mm 0 mps 702 mmHg 81%
    18:00 +22°C° 1.4 mm 1 mps 702 mmHg 85%
    19:00 +21°C° 1.4 mm 1 mps 702 mmHg 89%
    20:00 +20°C° 1 mm 1 mps 702 mmHg 92%
    21:00 +19°C° 1 mm 1 mps 702 mmHg 94%
    22:00 +18°C° 1 mm 1 mps 702 mmHg 96%
    23:00 +18°C° 0.2 mm 1 mps 702 mmHg 97%
    Show more